Hutchinson, KS

7:18 AM CST on February 19, 2017 (GMT -0600)
Hutchinson Municipal

Weather History for KHUT - May, 2013

Change the Weather History Date:

Tuesday, May 21, 2013

  Actual Average Record
Temperature  
Mean Temperature 62 °F -  
Max Temperature 73 °F 77 °F 98 °F (2005)
Min Temperature 53 °F 51 °F 42 °F (2015)
Degree Days  
Heating Degree Days 2    
Growing Degree Days 12 (Base 50)    
Moisture  
Dew Point 46 °F    
Average Humidity 55    
Maximum Humidity 77    
Minimum Humidity 36    
Precipitation  
Precipitation 0.00 in - - ()
Sea Level Pressure  
Sea Level Pressure 29.78 in    
Wind  
Wind Speed 8 mph (NW)    
Max Wind Speed 15 mph    
Max Gust Speed 20 mph    
Visibility 10 miles    
Events      
Averages and records for this station are not official NWS values.
T = Trace of Precipitation, MM = Missing Value Source: NWS Daily Summary

Daily Weather History Graph

Daily Weather History Graph

Search for Another Location

Airport or City:

Trip Planner

Search our weather history database for the weather conditions in past years. The results will help you decide how hot, cold, wet, or windy it might be!

Date:

Astronomy

May. 21, 2013 Rise Set
Actual Time 6:16 AM CDT 8:40 PM CDT
Civil Twilight 5:45 AM CDT 9:10 PM CDT
Nautical Twilight 5:08 AM CDT 9:47 PM CDT
Astronomical Twilight 4:27 AM CDT 10:29 PM CDT
Moon 4:58 PM CDT (5/21) 3:41 AM CDT (5/21)
Length of Visible Light 15h 24m
Length of Day
14h 24m
Waxing Gibbous, 84% of the Moon is Illuminated
May 21
Waxing Gibbous
May 24
Full
May 31
Last Quarter
Jun 8
New
Jun 16
First Quarter

Hourly Weather History & Observations

Time (CDT) Temp. Dew Point Humidity Pressure Visibility Wind Dir Wind Speed Gust Speed Precip Events Conditions
12:52 AM 60.1 °F 46.9 °F 62% 29.80 in 10.0 mi WNW 9.2 mph - N/A   Clear
1:52 AM 57.9 °F 46.9 °F 67% 29.80 in 10.0 mi WNW 5.8 mph - N/A   Clear
2:52 AM 57.9 °F 46.0 °F 65% 29.79 in 10.0 mi WSW 6.9 mph - N/A   Clear
3:52 AM 55.9 °F 46.0 °F 69% 29.78 in 10.0 mi SW 4.6 mph - N/A   Clear
4:52 AM 55.0 °F 46.0 °F 72% 29.79 in 10.0 mi West 8.1 mph - N/A   Clear
5:52 AM 54.0 °F 46.0 °F 75% 29.78 in 10.0 mi NW 11.5 mph - N/A   Clear
6:52 AM 53.1 °F 46.0 °F 77% 29.79 in 10.0 mi WNW 11.5 mph - N/A   Clear
7:52 AM 57.0 °F 46.0 °F 67% 29.82 in 10.0 mi WNW 12.7 mph - N/A   Clear
8:52 AM 61.0 °F 48.0 °F 62% 29.81 in 10.0 mi NW 13.8 mph - N/A   Clear
9:52 AM 64.9 °F 46.9 °F 52% 29.80 in 10.0 mi NNW 15.0 mph - N/A   Clear
10:52 AM 68.0 °F 46.9 °F 47% 29.81 in 10.0 mi NW 12.7 mph 19.6 mph N/A   Clear
11:52 AM 70.0 °F 45.0 °F 41% 29.79 in 10.0 mi NW 11.5 mph 19.6 mph N/A   Partly Cloudy
12:52 PM 70.0 °F 46.0 °F 42% 29.82 in 10.0 mi NW 13.8 mph 19.6 mph N/A   Mostly Cloudy
1:52 PM 71.1 °F 44.1 °F 38% 29.82 in 10.0 mi North 5.8 mph - N/A   Partly Cloudy
2:52 PM 71.1 °F 43.0 °F 36% 29.79 in 10.0 mi Variable 3.5 mph - N/A   Mostly Cloudy
3:52 PM 71.1 °F 44.1 °F 38% 29.75 in 10.0 mi WNW 8.1 mph - N/A   Clear
4:52 PM 72.0 °F 44.1 °F 37% 29.73 in 10.0 mi Variable 5.8 mph - N/A   Clear
5:52 PM 71.1 °F 46.0 °F 41% 29.72 in 10.0 mi SSE 3.5 mph - N/A   Partly Cloudy
6:52 PM 72.0 °F 46.0 °F 40% 29.71 in 10.0 mi West 8.1 mph - N/A   Partly Cloudy
7:52 PM 70.0 °F 48.9 °F 47% 29.72 in 10.0 mi NW 5.8 mph - N/A   Partly Cloudy
8:52 PM 64.9 °F 48.0 °F 54% 29.74 in 10.0 mi NW 3.5 mph - N/A   Clear
9:52 PM 62.1 °F 46.0 °F 56% 29.76 in 10.0 mi NNW 3.5 mph - N/A   Clear
10:52 PM 60.1 °F 46.0 °F 60% 29.79 in 10.0 mi NW 3.5 mph - N/A   Clear
11:52 PM 55.9 °F 46.0 °F 69% 29.80 in 10.0 mi North 5.8 mph - N/A   Clear